• în Republica Moldova
  • Lista ţărilor
  • Pe 7 zile
  • Temperatura apei
  • Hartă satelitară
  • Meteo pe hartă
  • Widget-uri
  • user-avatar
    Intrare

    Meteo pe oră la Wien

    Astăzi, 25 Martie, Sâmbătă

    Timp Temperatura Precipitaţii Vânt Presiune Umiditate
    00:00 +3°C° 0 mm 3 m/s 752 mmHg 86%
    01:00 +3°C° 0 mm 3 m/s 752 mmHg 88%
    02:00 +2°C° 0 mm 3 m/s 752 mmHg 88%
    03:00 +2°C° 0 mm 3 m/s 752 mmHg 89%
    04:00 +2°C° 0 mm 3 m/s 752 mmHg 89%
    05:00 +2°C° 0 mm 3 m/s 752 mmHg 87%
    06:00 +3°C° 0 mm 2 m/s 752 mmHg 86%
    07:00 +4°C° 0 mm 2 m/s 752 mmHg 81%
    08:00 +6°C° 0 mm 2 m/s 752 mmHg 75%
    09:00 +7°C° 0 mm 2 m/s 751 mmHg 68%
    10:00 +9°C° 0 mm 2 m/s 751 mmHg 61%
    11:00 +10°C° 0 mm 2 m/s 751 mmHg 57%
    12:00 +12°C° 0 mm 2 m/s 750 mmHg 53%
    13:00 +13°C° 0 mm 2 m/s 750 mmHg 44%
    14:00 +13°C° 0 mm 2 m/s 749 mmHg 45%
    15:00 +13°C° 0 mm 2 m/s 749 mmHg 45%
    16:00 +13°C° 0 mm 2 m/s 748 mmHg 46%
    17:00 +10°C° 0 mm 2 m/s 748 mmHg 52%
    18:00 +8°C° 0 mm 2 m/s 747 mmHg 58%
    19:00 +6°C° 0 mm 2 m/s 747 mmHg 65%
    20:00 +6°C° 0 mm 2 m/s 747 mmHg 67%
    21:00 +6°C° 0 mm 2 m/s 747 mmHg 69%
    22:00 +5°C° 0 mm 2 m/s 747 mmHg 70%
    23:00 +5°C° 0 mm 2 m/s 747 mmHg 73%

    Mâine, 26 Martie, Duminică

    Timp Temperatura Precipitaţii Vânt Presiune Umiditate
    00:00 +4°C° 0 mm 2 m/s 747 mmHg 76%
    01:00 +4°C° 0 mm 2 m/s 746 mmHg 78%
    02:00 +4°C° 0 mm 2 m/s 746 mmHg 81%
    03:00 +3°C° 0 mm 2 m/s 746 mmHg 83%
    04:00 +2°C° 0 mm 3 m/s 746 mmHg 85%
    05:00 +2°C° 0 mm 3 m/s 747 mmHg 85%
    06:00 +2°C° 0 mm 3 m/s 747 mmHg 84%
    07:00 +2°C° 0 mm 3 m/s 747 mmHg 84%
    08:00 +4°C° 0 mm 4 m/s 748 mmHg 74%
    09:00 +5°C° 0 mm 4 m/s 748 mmHg 64%
    10:00 +6°C° 0 mm 5 m/s 748 mmHg 54%
    11:00 +7°C° 0 mm 5 m/s 748 mmHg 51%
    12:00 +8°C° 0 mm 5 m/s 749 mmHg 48%
    13:00 +8°C° 0 mm 5 m/s 749 mmHg 46%
    14:00 +8°C° 0 mm 5 m/s 749 mmHg 47%
    15:00 +8°C° 0 mm 4 m/s 749 mmHg 48%
    16:00 +8°C° 0 mm 4 m/s 749 mmHg 49%
    17:00 +6°C° 0 mm 4 m/s 749 mmHg 57%
    18:00 +5°C° 0 mm 3 m/s 750 mmHg 65%
    19:00 +4°C° 0 mm 2 m/s 750 mmHg 72%
    20:00 +3°C° 0 mm 2 m/s 750 mmHg 74%
    21:00 +3°C° 0 mm 2 m/s 751 mmHg 76%
    22:00 +3°C° 0 mm 2 m/s 751 mmHg 78%
    23:00 +2°C° 0 mm 2 m/s 752 mmHg 80%

    Poimâine, 27 Martie, Luni

    Timp Temperatura Precipitaţii Vânt Presiune Umiditate
    00:00 +2°C° 0 mm 2 m/s 752 mmHg 81%
    01:00 +2°C° 0 mm 1 m/s 752 mmHg 83%
    02:00 +2°C° 0 mm 1 m/s 752 mmHg 85%
    03:00 +1°C° 0 mm 1 m/s 752 mmHg 87%
    04:00 +1°C° 0 mm 1 m/s 752 mmHg 89%
    05:00 +2°C° 0 mm 1 m/s 752 mmHg 84%
    06:00 +3°C° 0 mm 1 m/s 752 mmHg 79%
    07:00 +4°C° 0 mm 1 m/s 752 mmHg 74%
    08:00 +6°C° 0 mm 1 m/s 752 mmHg 67%
    09:00 +8°C° 0 mm 1 m/s 752 mmHg 59%
    10:00 +9°C° 0 mm 1 m/s 752 mmHg 51%
    11:00 +11°C° 0 mm 1 m/s 752 mmHg 47%
    12:00 +12°C° 0 mm 1 m/s 752 mmHg 44%
    13:00 +13°C° 0 mm 1 m/s 751 mmHg 40%
    14:00 +13°C° 0 mm 1 m/s 751 mmHg 41%
    15:00 +13°C° 0 mm 1 m/s 751 mmHg 42%
    16:00 +13°C° 0 mm 1 m/s 750 mmHg 43%
    17:00 +11°C° 0 mm 1 m/s 750 mmHg 50%
    18:00 +8°C° 0 mm 1 m/s 750 mmHg 58%
    19:00 +6°C° 0 mm 1 m/s 750 mmHg 65%
    20:00 +6°C° 0 mm 1 m/s 751 mmHg 65%
    21:00 +6°C° 0 mm 1 m/s 751 mmHg 66%
    22:00 +5°C° 0 mm 1 m/s 751 mmHg 66%
    23:00 +5°C° 0 mm 1 m/s 751 mmHg 66%

    28 Martie, Marţi

    Timp Temperatura Precipitaţii Vânt Presiune Umiditate
    00:00 +4°C° 0 mm 2 m/s 751 mmHg 66%
    01:00 +4°C° 0 mm 2 m/s 751 mmHg 66%
    02:00 +4°C° 0 mm 2 m/s 750 mmHg 66%
    03:00 +4°C° 0 mm 2 m/s 750 mmHg 66%
    04:00 +4°C° 0 mm 2 m/s 750 mmHg 66%
    05:00 +4°C° 0 mm 2 m/s 750 mmHg 65%
    06:00 +5°C° 0 mm 2 m/s 750 mmHg 64%
    07:00 +6°C° 0 mm 2 m/s 750 mmHg 63%
    08:00 +8°C° 0 mm 2 m/s 750 mmHg 57%
    09:00 +10°C° 0 mm 2 m/s 750 mmHg 50%
    10:00 +14°C° 0 mm 2 m/s 750 mmHg 44%
    11:00 +15°C° 0 mm 2 m/s 750 mmHg 42%
    12:00 +16°C° 0 mm 2 m/s 750 mmHg 40%
    13:00 +17°C° 0 mm 2 m/s 749 mmHg 39%
    14:00 +18°C° 0 mm 2 m/s 749 mmHg 41%
    15:00 +18°C° 0 mm 2 m/s 749 mmHg 43%
    16:00 +18°C° 0 mm 2 m/s 748 mmHg 45%
    17:00 +15°C° 0 mm 2 m/s 749 mmHg 55%
    18:00 +13°C° 0 mm 2 m/s 749 mmHg 64%
    19:00 +9°C° 0 mm 2 m/s 749 mmHg 73%
    20:00 +9°C° 0 mm 2 m/s 749 mmHg 76%
    21:00 +8°C° 0 mm 2 m/s 749 mmHg 79%
    22:00 +8°C° 0 mm 2 m/s 749 mmHg 82%
    23:00 +8°C° 0 mm 2 m/s 749 mmHg 83%

    29 Martie, Miercuri

    Timp Temperatura Precipitaţii Vânt Presiune Umiditate
    00:00 +7°C° 0 mm 2 m/s 749 mmHg 84%
    01:00 +7°C° 0 mm 2 m/s 749 mmHg 86%
    02:00 +7°C° 0 mm 2 m/s 749 mmHg 86%
    03:00 +7°C° 0 mm 2 m/s 749 mmHg 87%
    04:00 +6°C° 0 mm 2 m/s 749 mmHg 88%
    05:00 +7°C° 0 mm 2 m/s 749 mmHg 86%
    06:00 +8°C° 0 mm 2 m/s 749 mmHg 84%
    07:00 +9°C° 0 mm 2 m/s 750 mmHg 83%
    08:00 +12°C° 0 mm 2 m/s 750 mmHg 75%
    09:00 +13°C° 0 mm 3 m/s 750 mmHg 68%
    10:00 +17°C° 0 mm 3 m/s 750 mmHg 61%
    11:00 +18°C° 0 mm 3 m/s 749 mmHg 58%
    12:00 +18°C° 0 mm 3 m/s 749 mmHg 54%
    13:00 +19°C° 0 mm 3 m/s 749 mmHg 50%
    14:00 +19°C° 0 mm 3 m/s 749 mmHg 51%
    15:00 +19°C° 0 mm 3 m/s 748 mmHg 52%
    16:00 +19°C° 0 mm 2 m/s 748 mmHg 53%
    17:00 +17°C° 0 mm 2 m/s 748 mmHg 62%
    18:00 +15°C° 0 mm 2 m/s 748 mmHg 71%
    19:00 +13°C° 0 mm 2 m/s 748 mmHg 80%
    20:00 +12°C° 0 mm 2 m/s 748 mmHg 82%
    21:00 +12°C° 0 mm 2 m/s 749 mmHg 83%
    22:00 +10°C° 0 mm 2 m/s 749 mmHg 84%
    23:00 +10°C° 0 mm 2 m/s 749 mmHg 85%

    30 Martie, Joi

    Timp Temperatura Precipitaţii Vânt Presiune Umiditate
    00:00 +9°C° 0 mm 2 m/s 749 mmHg 86%
    01:00 +9°C° 0 mm 2 m/s 749 mmHg 87%
    02:00 +9°C° 0 mm 2 m/s 749 mmHg 88%
    03:00 +8°C° 0 mm 2 m/s 749 mmHg 88%
    04:00 +8°C° 0 mm 2 m/s 749 mmHg 89%
    05:00 +10°C° 0 mm 1 m/s 749 mmHg 87%
    06:00 +11°C° 0 mm 1 m/s 749 mmHg 85%
    07:00 +11°C° 0 mm 1 m/s 749 mmHg 83%
    08:00 +13°C° 0 mm 1 m/s 749 mmHg 76%
    09:00 +15°C° 0 mm 2 m/s 750 mmHg 68%
    10:00 +17°C° 0 mm 2 m/s 750 mmHg 61%
    11:00 +18°C° 0 mm 2 m/s 749 mmHg 58%
    12:00 +19°C° 0 mm 2 m/s 749 mmHg 54%
    13:00 +19°C° 0 mm 2 m/s 749 mmHg 51%
    14:00 +19°C° 0 mm 2 m/s 748 mmHg 51%
    15:00 +19°C° 0 mm 2 m/s 748 mmHg 52%
    16:00 +19°C° 0 mm 2 m/s 748 mmHg 52%
    17:00 +17°C° 0 mm 2 m/s 747 mmHg 60%
    18:00 +15°C° 0 mm 2 m/s 747 mmHg 69%
    19:00 +13°C° 0 mm 2 m/s 747 mmHg 77%
    20:00 +12°C° 0 mm 2 m/s 748 mmHg 79%
    21:00 +12°C° 0 mm 2 m/s 748 mmHg 80%
    22:00 +10°C° 0 mm 2 m/s 748 mmHg 82%
    23:00 +10°C° 0 mm 2 m/s 748 mmHg 83%
    Arată mai mult